User: anonymous
Location: Hepcat Sky Observatory
(29.9800°N, 95.6500°W)
Time: 00:42:44
(UTC-05:00)
Language:

SL-16 Debris - Orbit

View from above orbital plane
View from above orbital plane
View from above satellite
View from above satellite

Ground track
Ground track

The orbit data is extracted from the following two-line orbital elements,

1 26076U 99040E   14107.48250079  .00011899  00000-0  11705-2 0  3775
2 26076 028.4718 190.6174 4684776 247.3024 050.0486 06.18929134239443
Epoch (UTC): 17 April 2014 11:34:48
Eccentricity: 0.4684776
inclination: 28.4718°
perigee height: 282 km
apogee height: 12023 km
right ascension of ascending node: 190.6174°
argument of perigee: 247.3024°
revolutions per day: 6.18929134
mean anomaly at epoch: 50.0486°
orbit number at epoch: 23944

The dashed part of the orbit path shows where the satellite is in the earth's shadow,  

DLR